| time (UTC) | temp F | wind direction | speed MPH | gust MPH | rain 1hr in | rain 24hr in | rain mn in | humidity % | barometer mb |
| 20260905011542 | 50 | 80 | 0.0 | 0.0 | 0.00 | 0.06 | 0.01 | 84 | 1020.2 |
| 20260905010044 | 50 | 80 | 0.0 | 0.0 | 0.00 | 0.06 | 0.01 | 85 | 1020.1 |
| 20260905004540 | 50 | 80 | 0.0 | 2.0 | 0.00 | 0.06 | 0.01 | 82 | 1020.0 |
| 20260905003042 | 50 | 138 | 0.0 | 4.0 | 0.00 | 0.06 | 0.01 | 79 | 1019.9 |
| 20260905001537 | 51 | 193 | 1.0 | 4.0 | 0.00 | 0.06 | 0.01 | 79 | 1019.6 |
| 20260905000039 | 54 | 329 | 2.0 | 9.0 | 0.00 | 0.06 | 0.01 | 80 | 1019.4 |
| 20260904234542 | 57 | 223 | 2.0 | 5.0 | 0.00 | 0.06 | 0.01 | 69 | 1018.8 |
| 20260904233041 | 58 | 173 | 1.0 | 7.0 | 0.00 | 0.06 | 0.01 | 65 | 1018.8 |
| 20260904231600 | 60 | 279 | 1.0 | 9.0 | 0.00 | 0.06 | 0.01 | 64 | 1018.7 |
| 20260904230039 | 60 | 120 | 1.0 | 6.0 | 0.00 | 0.06 | 0.01 | 59 | 1018.8 |
| 20260904224539 | 60 | 191 | 1.0 | 5.0 | 0.00 | 0.06 | 0.01 | 70 | 1018.7 |
| 20260904223046 | 59 | 116 | 2.0 | 6.0 | 0.00 | 0.06 | 0.01 | 70 | 1018.4 |
| 20260904221547 | 57 | 111 | 1.0 | 4.0 | 0.00 | 0.06 | 0.01 | 79 | 1018.3 |
| 20260904220058 | 57 | 170 | 1.0 | 4.0 | 0.00 | 0.06 | 0.01 | 77 | 1018.4 |
| 20260904214548 | 56 | 69 | 1.0 | 5.0 | 0.00 | 0.06 | 0.01 | 77 | 1018.4 |
| 20260904213051 | 56 | 103 | 1.0 | 4.0 | 0.00 | 0.06 | 0.01 | 75 | 1018.5 |
| 20260904211549 | 54 | 179 | 2.0 | 5.0 | 0.00 | 0.06 | 0.01 | 83 | 1018.3 |
| 20260904210054 | 54 | 115 | 2.0 | 4.0 | 0.00 | 0.06 | 0.01 | 82 | 1018.3 |
| 20260904204552 | 55 | 217 | 1.0 | 3.0 | 0.00 | 0.06 | 0.01 | 79 | 1018.4 |
| 20260904203057 | 55 | 142 | 2.0 | 6.0 | 0.00 | 0.06 | 0.01 | 78 | 1018.4 |
| 20260904201550 | 55 | 151 | 1.0 | 4.0 | 0.00 | 0.06 | 0.01 | 80 | 1018.2 |
| 20260904200101 | 55 | 201 | 0.0 | 2.0 | 0.00 | 0.06 | 0.01 | 72 | 1018.1 |
| 20260904194545 | 55 | 220 | 1.0 | 3.0 | 0.00 | 0.06 | 0.01 | 74 | 1018.2 |
| 20260904193050 | 55 | 150 | 0.0 | 2.0 | 0.00 | 0.06 | 0.01 | 69 | 1018.0 |
| 20260904191550 | 57 | 186 | 1.0 | 4.0 | 0.00 | 0.06 | 0.01 | 68 | 1018.0 |
| 20260904190050 | 56 | 182 | 1.0 | 5.0 | 0.00 | 0.06 | 0.01 | 65 | 1017.9 |
| 20260904184552 | 56 | 157 | 1.0 | 3.0 | 0.00 | 0.06 | 0.01 | 69 | 1017.9 |
| 20260904183050 | 57 | 164 | 2.0 | 4.0 | 0.00 | 0.06 | 0.01 | 67 | 1017.8 |
| 20260904181548 | 56 | 100 | 2.0 | 6.0 | 0.00 | 0.06 | 0.01 | 70 | 1017.8 |
| 20260904180051 | 55 | 209 | 1.0 | 3.0 | 0.00 | 0.06 | 0.01 | 76 | 1017.5 |
| 20260904174547 | 54 | 120 | 1.0 | 4.0 | 0.00 | 0.06 | 0.01 | 85 | 1017.5 |
| 20260904173106 | 53 | 181 | 0.0 | 3.0 | 0.00 | 0.06 | 0.01 | 88 | 1017.5 |
| 20260904171549 | 51 | 199 | 0.0 | 4.0 | 0.00 | 0.06 | 0.01 | 95 | 1017.2 |
| 20260904170051 | 49 | 121 | 0.0 | 3.0 | 0.00 | 0.06 | 0.01 | 99 | 1017.5 |
| 20260904164550 | 47 | 171 | 0.0 | 1.0 | 0.00 | 0.06 | 0.01 | 100 | 1017.5 |
| 20260904163058 | 46 | 221 | 0.0 | 2.0 | 0.00 | 0.06 | 0.01 | 99 | 1017.5 |
| 20260904161600 | 46 | 194 | 0.0 | 3.0 | 0.00 | 0.06 | 0.01 | 100 | 1017.5 |
| 20260904160053 | 42 | 344 | 0.0 | 0.0 | 0.00 | 0.06 | 0.01 | 99 | 1017.3 |
| 20260904154550 | 41 | 344 | 0.0 | 0.0 | 0.00 | 0.06 | 0.01 | 99 | 1017.2 |
| 20260904153046 | 41 | 344 | 0.0 | 0.0 | 0.00 | 0.06 | 0.01 | 99 | 1017.0 |
| 20260904151552 | 41 | 344 | 0.0 | 1.0 | 0.00 | 0.06 | 0.01 | 99 | 1016.9 |
| 20260904150049 | 41 | 341 | 1.0 | 2.0 | 0.00 | 0.06 | 0.01 | 99 | 1016.7 |
| 20260904144546 | 40 | 342 | 0.0 | 1.0 | 0.00 | 0.06 | 0.01 | 98 | 1016.7 |
| 20260904143056 | 40 | 342 | 0.0 | 2.0 | 0.00 | 0.06 | 0.01 | 99 | 1016.5 |
| 20260904141556 | 40 | 342 | 0.0 | 2.0 | 0.00 | 0.06 | 0.01 | 98 | 1016.4 |
| 20260904140105 | 40 | 352 | 0.0 | 1.0 | 0.00 | 0.06 | 0.01 | 98 | 1016.2 |
| 20260904134609 | 41 | 352 | 0.0 | 0.0 | 0.00 | 0.06 | 0.01 | 98 | 1016.0 |
| 20260904133048 | 41 | 352 | 0.0 | 0.0 | 0.00 | 0.06 | 0.01 | 98 | 1015.9 |
| 20260904131552 | 42 | 352 | 0.0 | 1.0 | 0.00 | 0.06 | 0.01 | 99 | 1015.9 |
| 20260904130059 | 42 | 352 | 0.0 | 2.0 | 0.00 | 0.06 | 0.01 | 99 | 1015.9 |
| 20260904124608 | 41 | 5 | 0.0 | 1.0 | 0.00 | 0.06 | 0.01 | 98 | 1015.7 |
| 20260904123058 | 42 | 5 | 0.0 | 1.0 | 0.00 | 0.06 | 0.01 | 99 | 1015.7 |
| 20260904121551 | 42 | 321 | 1.0 | 7.0 | 0.00 | 0.06 | 0.01 | 99 | 1015.6 |
| 20260904120057 | 41 | 226 | 0.0 | 1.0 | 0.00 | 0.06 | 0.01 | 99 | 1015.5 |
| 20260904114552 | 41 | 226 | 0.0 | 0.0 | 0.00 | 0.06 | 0.01 | 99 | 1015.3 |
| 20260904113050 | 40 | 226 | 0.0 | 1.0 | 0.00 | 0.06 | 0.01 | 98 | 1015.3 |
| 20260904111549 | 41 | 226 | 0.0 | 1.0 | 0.00 | 0.06 | 0.01 | 99 | 1015.1 |
| 20260904110058 | 40 | 226 | 0.0 | 1.0 | 0.00 | 0.06 | 0.01 | 98 | 1015.0 |
| 20260904104550 | 40 | 226 | 0.0 | 1.0 | 0.00 | 0.06 | 0.01 | 97 | 1015.2 |
| 20260904103050 | 41 | 226 | 0.0 | 0.0 | 0.00 | 0.06 | 0.01 | 97 | 1015.1 |
| 20260904101552 | 42 | 226 | 0.0 | 0.0 | 0.00 | 0.06 | 0.01 | 98 | 1015.0 |
| 20260904100059 | 42 | 226 | 0.0 | 0.0 | 0.00 | 0.06 | 0.01 | 98 | 1014.9 |
| 20260904094559 | 42 | 226 | 0.0 | 0.0 | 0.00 | 0.06 | 0.01 | 98 | 1015.0 |
| 20260904093050 | 42 | 226 | 0.0 | 0.0 | 0.00 | 0.06 | 0.01 | 98 | 1014.9 |
| 20260904091549 | 43 | 226 | 0.0 | 0.0 | 0.00 | 0.06 | 0.01 | 98 | 1014.9 |
| 20260904090106 | 43 | 226 | 0.0 | 0.0 | 0.01 | 0.06 | 0.01 | 98 | 1015.0 |
| 20260904084556 | 42 | 226 | 0.0 | 0.0 | 0.01 | 0.06 | 0.01 | 98 | 1015.0 |
| 20260904083127 | 42 | 226 | 0.0 | 0.0 | 0.01 | 0.06 | 0.01 | 98 | 1015.0 |
| 20260904081606 | 42 | 226 | 0.0 | 0.0 | 0.01 | 0.06 | 0.01 | 98 | 1015.0 |
| 20260904080056 | 42 | 226 | 0.0 | 0.0 | 0.00 | 0.04 | 0.00 | 97 | 1015.1 |
| 20260904074551 | 43 | 226 | 0.0 | 0.0 | 0.00 | 0.04 | 0.00 | 98 | 1015.2 |
| 20260904073057 | 43 | 226 | 0.0 | 0.0 | 0.00 | 0.04 | 0.00 | 98 | 1015.1 |
| 20260904071621 | 43 | 226 | 0.0 | 0.0 | 0.00 | 0.04 | 0.00 | 97 | 1015.2 |
| 20260904070115 | 43 | 226 | 0.0 | 1.0 | 0.00 | 0.04 | 0.00 | 97 | 1015.2 |
| 20260904064550 | 43 | 226 | 0.0 | 1.0 | 0.00 | 0.04 | 0.04 | 97 | 1015.2 |
| 20260904063100 | 44 | 226 | 0.0 | 0.0 | 0.00 | 0.04 | 0.04 | 97 | 1015.2 |
| 20260904061545 | 44 | 226 | 0.0 | 0.0 | 0.00 | 0.04 | 0.04 | 97 | 1015.3 |
| 20260904060038 | 44 | 226 | 0.0 | 1.0 | 0.00 | 0.04 | 0.04 | 97 | 1015.3 |
| 20260904054547 | 44 | 174 | 0.0 | 0.0 | 0.00 | 0.06 | 0.04 | 97 | 1015.3 |
| 20260904053056 | 44 | 174 | 0.0 | 0.0 | 0.00 | 0.06 | 0.04 | 97 | 1015.4 |
| 20260904051542 | 44 | 174 | 0.0 | 1.0 | 0.00 | 0.06 | 0.04 | 97 | 1015.3 |
| 20260904050041 | 44 | 174 | 0.0 | 0.0 | 0.00 | 0.06 | 0.04 | 97 | 1015.2 |
| 20260904044541 | 44 | 174 | 0.0 | 0.0 | 0.00 | 0.06 | 0.04 | 97 | 1015.3 |
| 20260904043045 | 45 | 174 | 0.0 | 0.0 | 0.00 | 0.06 | 0.04 | 97 | 1015.4 |
| 20260904041544 | 45 | 174 | 0.0 | 0.0 | 0.00 | 0.06 | 0.04 | 97 | 1015.4 |
| 20260904040059 | 45 | 174 | 0.0 | 0.0 | 0.00 | 0.06 | 0.04 | 97 | 1015.4 |
| 20260904034540 | 45 | 174 | 0.0 | 1.0 | 0.01 | 0.07 | 0.04 | 97 | 1015.3 |
| 20260904033046 | 45 | 200 | 0.0 | 1.0 | 0.02 | 0.07 | 0.04 | 97 | 1015.4 |
| 20260904031553 | 45 | 198 | 0.0 | 2.0 | 0.02 | 0.07 | 0.04 | 96 | 1015.2 |
| 20260904030043 | 46 | 232 | 1.0 | 4.0 | 0.02 | 0.06 | 0.04 | 95 | 1015.1 |
| 20260904024542 | 46 | 186 | 0.0 | 2.0 | 0.02 | 0.22 | 0.04 | 95 | 1014.9 |
| 20260904023046 | 47 | 221 | 0.0 | 1.0 | 0.01 | 0.21 | 0.03 | 94 | 1014.9 |
| 20260904021542 | 47 | 221 | 0.0 | 2.0 | 0.03 | 0.21 | 0.03 | 94 | 1015.0 |
| 20260904020050 | 48 | 63 | 0.0 | 1.0 | 0.02 | 0.19 | 0.02 | 93 | 1015.1 |
| 20260904014545 | 48 | 63 | 0.0 | 1.0 | 0.02 | 0.19 | 0.02 | 93 | 1015.0 |
| 20260904013050 | 49 | 63 | 0.0 | 2.0 | 0.02 | 0.19 | 0.02 | 91 | 1014.7 |